Regional Weather Roundup
Issued by NWS Albany, NY

Current Version | Previous Version | Text Only | Print | Product List | Glossary On
Versions: 1 2 3 4 5 6 7 8 9 10 11 12 13 14 15 16 17 18 19 20 21 22 23 24 25 26 27
000
ASUS41 KALY 060110
RWRALY

NEW YORK STATE HOURLY WEATHER ROUNDUP
NATIONAL WEATHER SERVICE ALBANY NY
800 PM EST MON DEC 05 2016

NOTE: "FAIR" INDICATES FEW OR NO CLOUDS BELOW 12,000 FEET WITH NO
SIGNIFICANT WEATHER AND/OR NO OBSTRUCTIONS TO VISIBILITY.

NYZ032-033-038>043-046>054-057>066-NYZ062>081-082-084-060200-
EAST


CITY           SKY/WX    TMP DP  RH WIND       PRES   REMARKS
ALBANY         MOCLDY    38  31  76 W7        30.01R WCI  33
GLENS FALLS    CLOUDY    37  31  78 NE6       29.99R WCI  32
POUGHKEEPSIE   CLEAR     37  28  70 W10       30.02S WCI  30
NEWBURGH       PTCLDY    37  30  75 NW7       30.04R WCI  32
MONTGOMERY     MOCLDY    32  28  85 CALM      30.04R
WHITE PLAINS   CLEAR     39  27  62 NW5       30.03R
ISLIP          MOCLDY    42  30  62 NW8       30.04R
NEW YORK CITY  PTCLDY    47  33  58 NW9       30.05R
CENTRAL PARK   PTCLDY    45  32  60 CALM      30.08R
$$

NYZ005>009-017-018-044>046-055-056-060200-
CENTRAL


CITY           SKY/WX    TMP DP  RH WIND       PRES   REMARKS
FULTON         CLOUDY    40  31  70 SW9       30.04R WCI  34
SYRACUSE       CLOUDY    39  30  70 W13       30.04R WCI  31
ROME           CLOUDY    34  34 100 CALM      30.05R
ELMIRA         CLOUDY    40  27  59 W6        30.08R
BINGHAMTON     CLOUDY    34  28  79 W10       30.04R WCI  26
MONTICELLO     CLOUDY    34  28  80 NW6       30.03R WCI  29
$$

NYZ026>034-041>043-087-060200-
NORTH


CITY           SKY/WX    TMP DP  RH WIND       PRES   REMARKS
WATERTOWN      CLOUDY    40  33  76 W13       30.02R WCI  32
FORT DRUM      NOT AVBL
OGDENSBURG     FAIR      34  32  93 SW3       30.00R
MASSENA        CLOUDY    30  28  92 SW3       30.01R
SARANAC LAKE   CLOUDY    30  27  88 W6        29.93R FOG     WCI  24
PLATTSBURGH    CLOUDY    32  31  96 CALM      29.98R
$$

NYZ001>004-010>016-019>021-085-060200-
WEST


CITY           SKY/WX    TMP DP  RH WIND       PRES   REMARKS
NIAGARA FALLS  CLOUDY    41  29  62 W9        30.07S
BUFFALO        MOCLDY    39  28  64 W10       30.07S WCI  32
DUNKIRK        CLOUDY    42  30  62 W7        30.08S
JAMESTOWN      MOCLDY    34  27  75 SW3       30.05S
WELLSVILLE     CLOUDY    35  26  69 W7        30.05R WCI  29
ROCHESTER      CLEAR     37  29  72 W8        30.06R WCI  31
PENN YAN       CLEAR     34  24  67 S5        30.06R WCI  30
$$

             KEY
       WCI = WIND CHILL INDEX
       VSB = VISIBILITY
       HX  = HEAT INDEX
$$




USA.gov is the U.S. government's official web portal to all federal, state and local government web resources and services.